Regional Weather Roundup
Issued by NWS

Home | Current Version | Previous Version | Text Only | Print | Product List | Glossary Off
Versions: 1 2 3 4 5 6 7 8 9 10 11 12 13 14 15 16 17 18 19 20 21 22 23 24 25 26 27 28 29 30 31 32 33 34 35 36 37 38 39 40 41 42 43 44 45 46 47 48 49 50

026
ASUS44 KLIX 220805
RWRLA
LOUISIANA WEATHER ROUNDUP
NATIONAL WEATHER SERVICE NEW ORLEANS LA
200 AM CST MON DEC 22 2014

NOTE: "FAIR" INDICATES FEW OR NO CLOUDS BELOW 12,000 FEET WITH NO
      SIGNIFICANT WEATHER AND/OR OBSTRUCTIONS TO VISIBILITY.
      SKY/WX - SKY CONDITION AND SIGNIFICANT WEATHER.
      TMP - AIR TEMPERATURE.    DP   - DEWPOINT TEMPERATURE.
      RH  - RELATIVE HUMIDITY.  PRES - PRESSURE.
      HX  - HEAT INDEX.         WCI  - WIND CHILL INDEX.

*  THESE STATIONS ARE NOT NWS OR FAA STATIONS AND ARE NOT UNDER
   NWS QUALITY CONTROL.

LAZ040-048-061>063-065-066-069-220900-
SOUTHEAST LOUISIANA

CITY           SKY/WX    TMP DP  RH WIND       PRES   REMARKS
N.O. AUDUBON     N/A     58  58 100 MISG        N/A
N.O. INTL ARPT CLOUDY    58  56  93 E7        29.91S FOG
N.O. LAKEFRONT FOG       58  56  93 E10       29.91F VSB 3/4
N.O. DOWNTOWN* CLOUDY    57  54  88 NE7       29.91F
SLIDELL        LGT RAIN  56  55  97 CALM      29.90F FOG
BATON ROUGE    FOG       53  52  96 E5        29.88F VSB 1
BOOTHVILLE     CLOUDY    59  59 100 NW6       29.91F FOG
BELLE CHASSE   FOG       58  57  97 E9        29.90S VSB 3/4
BOGALUSA*        N/A     56  53  89 CALM      29.92F FOG
GALLIANO*      RAIN      56  55  99 MISG      29.90R
NEW ROADS*     CLOUDY    53  52  97 CALM      29.89S FOG
GONZALES*      CLOUDY    55  55 100 CALM      29.88F FOG
HAMMOND*       NOT AVBL
HOUMA*         CLOUDY    56  56  99 CALM      29.89F FOG
PORT FOURCHON* PTSUNNY   63  63 100 CALM      29.94R FOG

$$

LAZ041-044-053-054-220900-
SOUTHWEST LOUISIANA

CITY           SKY/WX    TMP DP  RH WIND       PRES   REMARKS
LAKE CHARLES   FOG       52  51  97 E3        29.87F VSB 3/4
LAFAYETTE      CLOUDY    52  50  93 CALM      29.89S FOG
PATTERSON      CLOUDY    55  52  88 CALM      29.89F
SALT POINT       N/A     57  53  86 SE6       29.87F
NEW IBERIA     MOCLDY    52  51  97 CALM      29.89S FOG
CHENAULT AIRPK FOG       51  51 100 CALM      29.89F VSB 1/2

$$

LAZ027-028-220900-
CENTRAL LOUISIANA

CITY           SKY/WX    TMP DP  RH WIND       PRES   REMARKS
FORT POLK      CLOUDY    50  48  93 SE6       29.86F FOG
ALEXANDRIA INT CLOUDY    49  49 100 SW5       29.88F FOG
ALEXANDRIA     CLOUDY    49  49 100 SW5       29.89S

$$

LAZ001-002-220900-
NORTHWEST LOUISIANA

CITY           SKY/WX    TMP DP  RH WIND       PRES   REMARKS
SHREVEPORT     CLOUDY    49  48  97 SE9       29.81F
BARKSDALE AFB  NOT AVBL
DTN SHREVEPORT CLOUDY    48  46  93 SE15      29.81F FOG

$$

LAZ014-016-220900-
NORTHEAST LOUISIANA

CITY           SKY/WX    TMP DP  RH WIND       PRES   REMARKS
MONROE         MOCLDY    46  46 100 SW6       29.90R
TALLULAH       CLOUDY    52  49  89 SE10      29.90S

$$




USA.gov is the U.S. government's official web portal to all federal, state and local government web resources and services.